TimeCST,TemperatureF,Dew PointF,Humidity,Sea Level PressureIn,VisibilityMPH,Wind Direction,Wind SpeedMPH,Gust SpeedMPH,PrecipitationIn,Events,Conditions,WindDirDegrees,DateUTC
12:54 AM,39.9,36.0,86,30.01,10.0,WNW,11.5,17.3,N/A,,Overcast,300,2012-12-29 06:54:00
1:54 AM,39.9,36.0,86,30.04,10.0,NW,10.4,-,N/A,,Overcast,310,2012-12-29 07:54:00
2:24 AM,39.2,35.6,87,30.05,10.0,NW,8.1,-,N/A,,Overcast,310,2012-12-29 08:24:00
2:54 AM,39.9,35.1,83,30.06,10.0,NW,11.5,-,N/A,,Overcast,320,2012-12-29 08:54:00
3:54 AM,39.0,35.1,86,30.08,10.0,NW,6.9,-,N/A,,Overcast,310,2012-12-29 09:54:00
4:54 AM,39.0,35.1,86,30.10,10.0,NW,10.4,18.4,N/A,,Overcast,310,2012-12-29 10:54:00
5:54 AM,39.0,34.0,82,30.13,10.0,NW,10.4,-,N/A,,Overcast,320,2012-12-29 11:54:00
6:54 AM,39.0,33.1,79,30.15,10.0,WNW,10.4,17.3,N/A,,Overcast,290,2012-12-29 12:54:00
7:54 AM,37.9,32.0,79,30.19,9.0,NW,9.2,17.3,N/A,,Overcast,310,2012-12-29 13:54:00
8:27 AM,37.4,30.2,75,30.20,10.0,NW,9.2,16.1,N/A,,Overcast,310,2012-12-29 14:27:00
8:54 AM,37.9,30.9,76,30.22,10.0,NW,11.5,-,N/A,,Overcast,310,2012-12-29 14:54:00
9:31 AM,37.4,28.4,70,30.23,10.0,NW,8.1,18.4,N/A,,Overcast,310,2012-12-29 15:31:00
9:54 AM,39.0,28.0,65,30.25,10.0,WNW,9.2,20.7,N/A,,Overcast,290,2012-12-29 15:54:00
10:54 AM,39.0,27.0,62,30.25,10.0,NW,12.7,-,N/A,,Mostly Cloudy,320,2012-12-29 16:54:00
11:18 AM,39.2,28.4,65,30.24,10.0,NW,10.4,-,N/A,,Scattered Clouds,310,2012-12-29 17:18:00
11:54 AM,41.0,27.0,57,30.24,10.0,NW,12.7,-,N/A,,Partly Cloudy,310,2012-12-29 17:54:00
12:54 PM,43.0,25.0,49,30.22,10.0,NW,11.5,18.4,N/A,,Partly Cloudy,310,2012-12-29 18:54:00
1:54 PM,44.1,26.1,49,30.23,10.0,WNW,10.4,-,N/A,,Clear,300,2012-12-29 19:54:00
2:54 PM,43.0,26.1,51,30.25,10.0,WNW,11.5,-,N/A,,Partly Cloudy,290,2012-12-29 20:54:00
3:54 PM,42.1,25.0,51,30.28,10.0,NW,15.0,20.7,N/A,,Partly Cloudy,310,2012-12-29 21:54:00
4:54 PM,39.0,25.0,57,30.31,10.0,NNW,8.1,-,N/A,,Partly Cloudy,330,2012-12-29 22:54:00
5:54 PM,36.0,26.1,67,30.33,10.0,North,8.1,-,N/A,,Clear,350,2012-12-29 23:54:00
6:54 PM,34.0,25.0,70,30.37,10.0,NNW,9.2,-,N/A,,Clear,340,2012-12-30 00:54:00
7:54 PM,33.1,25.0,72,30.40,10.0,NNW,6.9,-,N/A,,Clear,340,2012-12-30 01:54:00
8:54 PM,33.1,25.0,72,30.42,10.0,North,8.1,-,N/A,,Clear,350,2012-12-30 02:54:00
9:54 PM,32.0,24.1,73,30.43,10.0,North,6.9,-,N/A,,Clear,350,2012-12-30 03:54:00
10:54 PM,32.0,24.1,73,30.44,10.0,NW,4.6,-,N/A,,Clear,310,2012-12-30 04:54:00
11:54 PM,30.0,24.1,79,30.44,10.0,Calm,Calm,-,N/A,,Clear,0,2012-12-30 05:54:00